[[{"header":{"parameterUnit":"m.s-1","parameterCategory":1,"la1":30.2991,"la2":30.254,"lo1":-89.0895,"lo2":-89.0444,"dy":0.0017,"dx":0.0017,"nx":28,"ny":28,"refTime":"2025-03-11T03:00:00:Z","depth":0,"parameterNumber":2,"parameterNumberName":"U-component_of_WINDS"},"data":[0,0,0,0,0,0,0,0,0,0,0,0,0,0,0,0,0,0,0,0,0,0,0,0,0,0,0,0,0,0,0,0,0,0,0,0,0,0,0,0,0,0,0,0,0,0,0,0,0,0,0,0,0,0,0,0,0,0,1.3159,1.316,0,1.3198,1.3198,1.3199,1.3232,1.3233,1.3233,1.3234,1.3274,1.3275,1.3276,0,0,0,0,0,0,0,0,0,0,0,0,0,1.3117,1.3117,1.3159,1.316,1.316,1.3198,1.3198,1.3199,1.3232,1.3233,1.3233,1.3234,1.3274,1.3275,1.3276,0,0,0,0,0,0,0,0,0,0,0,0,0,1.3143,1.3117,1.3159,1.3181,1.3184,1.3197,1.3198,1.3199,1.3232,1.3233,1.3233,1.3234,1.3274,1.3275,1.3276,1.3271,0,0,1.3279,1.328,0,0,0,0,0,0,0,0,1.3142,1.3145,1.3178,1.318,1.3183,1.3211,1.3198,1.3223,1.3232,1.3214,1.3234,1.3234,1.3253,1.3256,1.3262,1.3273,1.3275,1.3279,1.328,1.3281,1.3281,0,0,0,0,0,0,0,1.314,1.3143,1.3175,1.3178,1.3181,1.319,1.3194,1.3203,1.323,1.3216,1.3218,1.3222,1.3254,1.3261,1.3263,1.3275,1.3279,1.328,1.3281,1.3281,1.3286,1.3285,0,0,0,0,0,0,1.3134,1.3141,1.3173,1.3176,1.3163,1.319,1.3195,1.3201,1.323,1.3235,1.3222,1.3223,1.3258,1.3262,1.3264,1.3261,1.3281,1.3282,1.3282,1.3286,1.3286,1.3285,0,0,0,0,0,0,1.3133,1.3137,1.3172,1.3159,1.3164,1.319,1.3197,1.3202,1.3208,1.3234,1.3239,1.3223,1.3259,1.3263,1.3269,1.3263,1.3282,1.3283,1.3287,1.3286,1.3285,1.3255,0,0,0,0,0,0,1.3132,1.3136,1.3134,1.3159,1.3165,1.3175,1.3196,1.3202,1.321,1.3212,1.3237,1.3241,1.326,1.3268,1.327,1.3265,1.3284,1.3288,1.3286,1.3286,1.3256,1.3253,1.325,0,0,0,0,0,1.313,1.3124,1.3134,1.3138,1.3163,1.3175,1.3178,1.3199,1.3209,1.3207,1.3224,1.3241,1.3263,1.3268,1.3271,1.3266,1.3288,1.3287,1.3286,1.3258,1.3254,1.325,0,0,0,0,0,0,1.3098,1.3128,1.3139,1.3141,1.3155,1.3181,1.3179,1.3194,1.3206,1.3208,1.3234,1.3239,1.3243,1.3255,1.326,1.3264,1.3278,1.3277,1.3255,1.3252,1.3249,1.3246,1.3285,0,0,0,0,0,1.3091,1.3098,1.3124,1.3123,1.3129,1.3153,1.3159,1.3174,1.319,1.3196,1.3214,1.3229,1.324,1.3246,1.3258,1.3258,1.3264,1.3256,1.3253,1.325,1.325,1.3252,1.3249,1.3281,1.3281,1.3281,0,0,1.3078,1.3094,1.3097,1.3117,1.313,1.3137,1.3158,1.3164,1.317,1.3197,1.3205,1.3218,1.3237,1.324,1.3243,1.3251,1.3242,1.3249,1.3246,1.3247,1.325,1.3247,1.3244,1.328,1.328,1.328,0,0,1.3056,1.3069,1.307,1.3082,1.3101,1.3117,1.3117,1.3141,1.315,1.3158,1.3179,1.3186,1.3204,1.3217,1.3225,1.3209,1.3225,1.3212,1.3195,1.3197,1.3194,1.3192,1.3187,1.3185,1.3211,1.3211,1.3211,0,1.3036,1.3047,1.3069,1.3074,1.3082,1.3107,1.3109,1.312,1.3141,1.3147,1.3155,1.3178,1.3193,1.32,1.3196,1.3202,1.3204,1.3209,1.3193,1.3191,1.3189,1.3185,1.3183,1.3209,1.3209,1.321,1.321,0,1.3023,1.303,1.3029,1.3049,1.3057,1.306,1.3083,1.3089,1.3103,1.3118,1.3125,1.3143,1.3159,1.3162,1.3176,1.3171,1.3176,1.3188,1.3203,1.3184,1.318,1.3179,1.3207,1.3207,1.3208,1.3208,0,0,1.2982,1.3014,1.3014,1.3023,1.3046,1.3053,1.3057,1.3072,1.3077,1.3091,1.3096,1.3111,1.3122,1.3132,1.3148,1.3149,1.3136,1.3162,1.3163,1.3157,1.3133,1.3124,1.3122,1.3146,1.3146,1.3146,1.3132,0,1.2965,1.2975,1.2994,1.2998,1.3006,1.3029,1.3033,1.3048,1.3062,1.3071,1.3087,1.3097,1.3111,1.3117,1.312,1.3137,1.3132,1.3138,1.3152,1.3152,1.3147,1.312,1.311,1.3096,1.313,1.313,1.313,0,1.2946,1.2959,1.2963,1.2986,1.299,1.2993,1.3009,1.3017,1.3034,1.3045,1.3056,1.3072,1.308,1.3093,1.3103,1.3107,1.3114,1.3123,1.3123,1.3126,1.314,1.3122,1.3092,1.309,1.3128,1.3128,1.3128,0,1.2918,1.2936,1.2941,1.2948,1.2975,1.2977,1.2988,1.3006,1.3014,1.3027,1.3033,1.3047,1.3055,1.3066,1.3087,1.3094,1.3095,1.311,1.3105,1.3104,1.3105,1.3104,1.3076,1.3108,1.3108,1.3108,1.3108,0,1.2897,1.2899,1.2928,1.2931,1.2935,1.2957,1.296,1.2973,1.2989,1.2996,1.3017,1.3023,1.3049,1.3058,1.3074,1.3081,1.3085,1.3094,1.3098,1.3092,1.3091,1.3098,1.3099,1.3107,1.3107,1.3107,1.3107,0,1.2866,1.2885,1.2893,1.2917,1.2923,1.2924,1.2946,1.295,1.2965,1.2973,1.2977,1.3001,1.3013,1.3034,1.3052,1.3063,1.3067,1.3074,1.3061,1.3064,1.3058,1.3058,1.3033,1.3031,1.3063,1.3063,1.3062,0,1.2851,1.2853,1.2878,1.2884,1.2894,1.2903,1.2911,1.2933,1.2941,1.2961,1.2963,1.2977,1.2989,1.3007,1.3027,1.3041,1.3049,1.3039,1.3051,1.3046,1.305,1.305,1.3051,1.3037,1.3036,1.3036,1.3036,0,1.2824,1.2834,1.2845,1.2859,1.2867,1.288,1.2893,1.2897,1.2922,1.293,1.2942,1.2951,1.297,1.2983,1.3,1.3013,1.3029,1.3031,1.3031,1.3026,1.3018,1.3023,1.3054,1.3032,1.3032,1.3033,1.3033,1.3033,1.2802,1.2805,1.2823,1.2834,1.2846,1.2858,1.2864,1.288,1.289,1.2907,1.2919,1.2931,1.2949,1.2973,1.2984,1.2994,1.3002,1.3001,1.3001,1.3001,1.2999,1.3016,1.2997,1.2997,1.2998,1.2998,1.2998,0,1.2777,1.2789,1.2799,1.2817,1.2826,1.2839,1.2855,1.2862,1.2872,1.2887,1.2898,1.2912,1.2926,1.2946,1.2961,1.2965,1.2973,1.2968,1.2969,1.2972,1.2991,1.299,1.2962,1.2962,1.2962,1.2962,1.2962,1.2962,1.2765,1.2771,1.2783,1.2795,1.2808,1.2819,1.2827,1.2839,1.2851,1.2866,1.2877,1.289,1.2907,1.2924,1.2937,1.2942,1.2947,1.2941,1.2949,1.2967,1.297,1.2973,1.2973,1.2941,1.2941,1.2929,1.2929,1.2929]},{"header":{"parameterUnit":"m.s-1","parameterCategory":1,"la1":30.2991,"la2":30.254,"lo1":-89.0895,"lo2":-89.0444,"dy":0.0017,"dx":0.0017,"nx":28,"ny":28,"refTime":"2025-03-11T03:00:00:Z","depth":0,"parameterNumber":3,"parameterNumberName":"V-component_of_WINDS"},"data":[0,0,0,0,0,0,0,0,0,0,0,0,0,0,0,0,0,0,0,0,0,0,0,0,0,0,0,0,0,0,0,0,0,0,0,0,0,0,0,0,0,0,0,0,0,0,0,0,0,0,0,0,0,0,0,0,0,0,1.8423,1.8423,0,1.8408,1.8408,1.8408,1.8417,1.8417,1.8417,1.8418,1.84,1.8399,1.8398,0,0,0,0,0,0,0,0,0,0,0,0,0,1.8455,1.8455,1.8423,1.8423,1.8422,1.8408,1.8408,1.8408,1.8417,1.8417,1.8418,1.8418,1.84,1.8399,1.8398,0,0,0,0,0,0,0,0,0,0,0,0,0,1.8441,1.8454,1.8423,1.8425,1.8425,1.8408,1.8408,1.8408,1.8416,1.8417,1.8418,1.8418,1.8401,1.8399,1.8398,1.8377,0,0,1.8394,1.8394,0,0,0,0,0,0,0,0,1.8442,1.844,1.8425,1.8425,1.8425,1.8415,1.8413,1.8397,1.8416,1.842,1.8418,1.8419,1.8404,1.8403,1.8399,1.8376,1.8376,1.8394,1.8393,1.8393,1.8392,0,0,0,0,0,0,0,1.8443,1.844,1.8417,1.8425,1.8425,1.8426,1.8425,1.841,1.8408,1.8419,1.842,1.8418,1.8404,1.84,1.8398,1.8375,1.8394,1.8393,1.8392,1.8392,1.8334,1.8333,0,0,0,0,0,0,1.8444,1.8441,1.8417,1.8416,1.8435,1.8425,1.8423,1.8417,1.8409,1.8408,1.8418,1.8419,1.8402,1.84,1.8398,1.8371,1.8393,1.8392,1.8391,1.8334,1.8333,1.8333,0,0,0,0,0,0,1.8445,1.8442,1.8418,1.8429,1.8426,1.8424,1.8417,1.8417,1.8412,1.8408,1.8407,1.8413,1.8402,1.8399,1.8382,1.8371,1.8391,1.839,1.8335,1.8334,1.8333,1.8319,0,0,0,0,0,0,1.8445,1.8442,1.8435,1.8429,1.8425,1.8403,1.8416,1.8416,1.841,1.8411,1.8403,1.8403,1.8402,1.8384,1.8381,1.8369,1.8389,1.8336,1.8335,1.8333,1.832,1.8317,1.8315,0,0,0,0,0,1.8447,1.8431,1.8434,1.8431,1.8416,1.8403,1.8401,1.8402,1.8409,1.8401,1.8398,1.8403,1.8373,1.8382,1.8379,1.8366,1.8337,1.8335,1.8333,1.8321,1.8318,1.8315,0,0,0,0,0,0,1.8435,1.843,1.8434,1.8416,1.841,1.8404,1.8394,1.8398,1.8389,1.839,1.8391,1.8389,1.8371,1.8367,1.8378,1.8345,1.8356,1.8353,1.8348,1.8344,1.8342,1.8342,1.8388,0,0,0,0,0,1.843,1.8421,1.8417,1.8401,1.8398,1.8397,1.8391,1.8392,1.8386,1.8383,1.8378,1.8371,1.8359,1.8352,1.8342,1.832,1.8317,1.831,1.8307,1.8305,1.8302,1.8289,1.8285,1.8327,1.8327,1.8327,0,0,1.842,1.8417,1.8411,1.8399,1.8394,1.8383,1.8395,1.8383,1.8374,1.8381,1.8364,1.836,1.8352,1.8332,1.8323,1.8328,1.8291,1.8303,1.8301,1.83,1.8287,1.8283,1.828,1.8326,1.8326,1.8326,0,0,1.8397,1.8394,1.838,1.8375,1.8368,1.8367,1.8364,1.8358,1.8356,1.8339,1.8344,1.8333,1.8314,1.8307,1.8302,1.8275,1.8278,1.8271,1.8256,1.8243,1.824,1.8237,1.8226,1.8222,1.8269,1.8269,1.8269,0,1.8385,1.8369,1.8372,1.8359,1.8353,1.836,1.8345,1.834,1.833,1.8325,1.8331,1.8307,1.8302,1.828,1.8273,1.8269,1.8264,1.8271,1.8241,1.8238,1.8235,1.8224,1.822,1.8268,1.8268,1.8268,1.8268,0,1.8354,1.8343,1.8333,1.8323,1.8316,1.8303,1.8302,1.8295,1.8297,1.8295,1.8277,1.8271,1.8259,1.8254,1.8255,1.8231,1.8235,1.8241,1.8252,1.823,1.822,1.8216,1.8267,1.8267,1.8267,1.8267,0,0,1.8322,1.8314,1.831,1.8305,1.8298,1.8289,1.8275,1.8264,1.8256,1.8249,1.8236,1.822,1.8225,1.8219,1.822,1.8208,1.8185,1.8216,1.8216,1.8209,1.8157,1.8151,1.8146,1.8188,1.8187,1.8187,1.8157,0,1.8296,1.8273,1.8275,1.8252,1.8241,1.8247,1.8235,1.8228,1.8226,1.8215,1.8213,1.82,1.8209,1.8205,1.8195,1.819,1.8175,1.8193,1.8174,1.8174,1.8175,1.8141,1.8135,1.8107,1.8153,1.8152,1.8152,0,1.8263,1.8255,1.8231,1.8225,1.822,1.8209,1.8198,1.8189,1.8181,1.818,1.8173,1.8175,1.8159,1.8172,1.8149,1.8162,1.8154,1.8151,1.815,1.8147,1.816,1.8135,1.8098,1.8093,1.8146,1.8146,1.8147,0,1.824,1.8223,1.8206,1.8202,1.8195,1.8187,1.8183,1.8176,1.8169,1.8159,1.8154,1.8143,1.8136,1.8126,1.8125,1.8134,1.8102,1.8114,1.8099,1.8099,1.8091,1.8091,1.805,1.8089,1.8089,1.8089,1.8089,0,1.821,1.8195,1.8196,1.8185,1.8168,1.817,1.8152,1.8149,1.8143,1.8131,1.8136,1.8124,1.8124,1.8112,1.8111,1.8091,1.8089,1.8086,1.8086,1.8085,1.8085,1.8079,1.808,1.8088,1.8088,1.8088,1.8088,0,1.818,1.8181,1.8162,1.8157,1.8155,1.8142,1.8137,1.8126,1.8125,1.811,1.8106,1.8103,1.8089,1.8087,1.807,1.807,1.8046,1.8048,1.8048,1.8048,1.8032,1.8033,1.7984,1.7977,1.8023,1.8022,1.8022,0,1.8161,1.8149,1.8142,1.8135,1.8131,1.812,1.8112,1.8114,1.8106,1.8096,1.8086,1.8072,1.8061,1.8038,1.8033,1.802,1.8021,1.8005,1.8019,1.8018,1.8019,1.8019,1.8017,1.8002,1.8002,1.8001,1.8001,0,1.8125,1.8125,1.8115,1.8105,1.8096,1.8088,1.808,1.8074,1.8074,1.8064,1.805,1.8042,1.8025,1.8011,1.7998,1.7993,1.7996,1.7997,1.7992,1.799,1.799,1.7988,1.8039,1.7997,1.7998,1.7998,1.7998,1.7998,1.8098,1.8088,1.8081,1.8069,1.8064,1.8056,1.8046,1.8043,1.8032,1.8018,1.802,1.8004,1.7995,1.7978,1.7972,1.7958,1.7964,1.7957,1.7955,1.7953,1.7951,1.7994,1.7956,1.7956,1.7956,1.7957,1.7957,0,1.8061,1.8057,1.8047,1.8036,1.8026,1.8032,1.8023,1.8014,1.8,1.7993,1.7982,1.7965,1.7951,1.7946,1.7932,1.7922,1.7923,1.7918,1.7917,1.7916,1.7948,1.7953,1.7917,1.7917,1.7917,1.7917,1.7917,1.7917,1.8041,1.8023,1.8022,1.8001,1.7997,1.7982,1.7977,1.7969,1.7963,1.7944,1.7933,1.793,1.7922,1.7908,1.7895,1.7893,1.7887,1.7881,1.788,1.791,1.7914,1.7918,1.7922,1.788,1.788,1.7849,1.7848,1.7848]}]]